Regional Weather Roundup
Issued by NWS Charleston, WV

Home | Current Version | Previous Version | Text Only | Print | Product List | Glossary On
Versions: 1 2 3 4 5 6 7 8 9 10 11 12 13 14 15 16 17 18 19 20 21 22 23 24 25 26 27 28 29 30 31 32 33 34 35 36 37 38 39 40 41 42 43 44 45 46 47 48 49 50
000
ASUS41 KRLX 042010
RWRRLX
West Virginia Regional Weather Roundup
National Weather Service Charleston WV
400 PM EDT TUE AUG 04 2015

Note: "fair" indicates few or no clouds below 12,000 feet with no
significant weather and/or obstructions to visibility.

WVZ003-042100-
Northern Panhandle of West Virginia

CITY           SKY/WX    TMP DP  RH WIND       PRES   REMARKS
WHEELING       MOSUNNY   81  55  40 W6        29.97F
$$

WVZ009-042100-
Northwest West Virginia

CITY           SKY/WX    TMP DP  RH WIND       PRES   REMARKS
PARKERSBURG    MOSUNNY   87  60  40 W7        29.98F
$$

WVZ006-042100-
Western West Virginia

CITY           SKY/WX    TMP DP  RH WIND       PRES   REMARKS
HUNTINGTON     PTSUNNY   86  66  51 SW9       29.96F
$$

WVZ015-042100-
West Central West Virginia

CITY           SKY/WX    TMP DP  RH WIND       PRES   REMARKS
CHARLESTON     MOSUNNY   86  66  51 W8        29.97F
$$

WVZ022-031-042100-
North Central West Virginia

CITY           SKY/WX    TMP DP  RH WIND       PRES   REMARKS
CLARKSBURG     MOSUNNY   86  63  45 W9        29.96F
MORGANTOWN     MOSUNNY   86  53  32 W9        29.97F
$$

WVZ025-035-042-045-042100-
Southern West Virginia

CITY           SKY/WX    TMP DP  RH WIND       PRES   REMARKS
BECKLEY        MOSUNNY   81  64  56 NW12      30.06F
LOGAN            N/A     81  70  69 W3        29.99S
BLUEFIELD      PTSUNNY   81  65  58 W8        30.10F
LEWISBURG      MOSUNNY   85  62  46 W10       30.04F
$$

WVZ047-042100-
Northern Mountains of West Virginia

CITY           SKY/WX    TMP DP  RH WIND       PRES   REMARKS
ELKINS         MOSUNNY   81  61  50 W8        30.02S
$$

WVZ052-042100-
Eastern Panhandle of West Virginia

CITY           SKY/WX    TMP DP  RH WIND       PRES   REMARKS
MARTINSBURG    SUNNY     88  60  38 W7        29.90F
PETERSBURG     MOSUNNY   88  61  39 W15       29.94S
$$


USA.gov is the U.S. government's official web portal to all federal, state and local government web resources and services.